This is the latest recevied weather packets stored in our database for station/object SV2RIM-2. If no packets are shown the sender has not sent any weather packets the latest 10 day(s).
| Time | Temp. | Humidity | Pressure | Rain* | Wind** | Luminosity | Snow |
|---|---|---|---|---|---|---|---|
| 1777677019 | 6.67° C | 73% | 1022.1 hPa | 0.25 mm | - | - | - |
| 1777676419 | 6.67° C | 72% | 1022.2 hPa | - | - | - | - |
| 1777675819 | 6.67° C | 72% | 1022.2 hPa | - | - | - | - |
| 1777675219 | 6.11° C | 74% | 1022.3 hPa | - | - | - | - |
| 1777674619 | 6.67° C | 74% | 1022.5 hPa | - | - | - | - |
| 1777674019 | 6.67° C | 74% | 1022.7 hPa | - | - | - | - |
| 1777673419 | 6.11° C | 75% | 1022.7 hPa | - | - | - | - |
| 1777672819 | 6.67° C | 74% | 1022.8 hPa | - | - | - | - |
| 1777672219 | 6.67° C | 75% | 1022.7 hPa | - | - | - | - |
| 1777671619 | 7.22° C | 75% | 1022.8 hPa | - | - | - | - |
| 1777671019 | 7.22° C | 74% | 1022.7 hPa | - | - | - | - |
| 1777670419 | 7.78° C | 74% | 1022.7 hPa | - | - | - | - |
| 1777669819 | 8.33° C | 72% | 1022.5 hPa | - | - | - | - |
| 1777669219 | 8.89° C | 71% | 1022.4 hPa | - | - | - | - |
| 1777668619 | 8.89° C | 70% | 1022.4 hPa | - | - | - | - |
| 1777668019 | 8.89° C | 70% | 1022.3 hPa | - | - | - | - |
| 1777667419 | 8.89° C | 69% | 1022.3 hPa | - | - | - | - |
| 1777666819 | 8.89° C | 69% | 1022.3 hPa | - | - | - | - |
| 1777666219 | 8.89° C | 68% | 1022.2 hPa | - | - | - | - |
| 1777665619 | 8.89° C | 68% | 1022.2 hPa | - | - | - | - |
| 1777665019 | 8.89° C | 69% | 1022.2 hPa | - | - | - | - |
| 1777664419 | 9.44° C | 68% | 1022.1 hPa | - | - | - | - |
| 1777663819 | 8.89° C | 69% | 1022 hPa | - | - | - | - |
| 1777663219 | 9.44° C | 69% | 1021.9 hPa | - | - | - | - |
| 1777662619 | 9.44° C | 69% | 1021.9 hPa | - | - | - | - |
* Rain latest hour (hover to see other rain measurements)
** Current wind speed in m/s (hover to see current wind gust speed)